Location: Newark
(49.8969°N, 3.3422°E)
Time: 14:30:36
(UTC+00:00)

Explorer 7 - All Passes

Search period start: 24 January 2020 00:00
Search period end: 03 February 2020 00:00
Orbit: 485 x 679 km, 50.3° (Epoch: 23 January)

Date Brightness Start Highest point End Pass type
(mag) Time Alt. Az. Time Alt. Az. Time Alt. Az.
24 Jan - 00:07:51 10° WSW 00:11:34 61° SSE 00:15:19 10° E night (unlit)
24 Jan - 01:48:13 10° W 01:52:01 83° N 01:55:55 10° E night (unlit)
24 Jan - 03:28:41 10° W 03:32:28 62° SSW 03:36:26 10° ESE visible
24 Jan - 05:09:38 10° W 05:12:30 19° SW 05:15:28 10° S visible
24 Jan - 22:33:10 10° SSW 22:36:20 26° SE 22:39:31 10° E night (unlit)
25 Jan - 00:12:42 10° WSW 00:16:28 77° SSE 00:20:16 10° E night (unlit)
25 Jan - 01:53:11 10° W 01:56:58 85° N 02:00:53 10° E night (unlit)
25 Jan - 03:33:39 10° W 03:37:20 47° SSW 03:41:12 10° SE visible
25 Jan - 05:15:20 10° WSW 05:17:11 13° SW 05:19:06 10° SSW visible
25 Jan - 22:37:38 10° SW 22:41:08 37° SSE 22:44:37 10° E night (unlit)
26 Jan - 00:17:38 10° W 00:21:24 89° SE 00:25:13 10° E night (unlit)
26 Jan - 01:58:07 10° W 02:01:55 86° S 02:05:49 10° ESE night (unlit)
26 Jan - 03:38:40 10° W 03:42:10 34° SSW 03:45:48 10° SE visible
26 Jan - 21:04:09 10° S 21:06:08 14° SE 21:08:06 10° ESE night (unlit)
26 Jan - 22:42:17 10° SW 22:45:57 50° SSE 22:49:37 10° E night (unlit)
27 Jan - 00:22:35 10° W 00:26:21 84° N 00:30:10 10° E night (unlit)
27 Jan - 02:03:04 10° W 02:06:50 72° SSW 02:10:44 10° ESE night (unlit)
27 Jan - 03:43:49 10° W 03:46:57 24° SW 03:50:11 10° SSE night (unlit)
27 Jan - 21:07:57 10° SSW 21:10:49 20° SE 21:13:40 10° E night (unlit)
27 Jan - 22:47:06 10° WSW 22:50:50 67° SSE 22:54:35 10° E night (unlit)
28 Jan - 00:27:33 10° W 00:31:18 83° N 00:35:08 10° E night (unlit)
28 Jan - 02:08:01 10° W 02:11:44 56° SSW 02:15:33 10° ESE night (unlit)
28 Jan - 03:49:11 10° W 03:51:40 17° SW 03:54:13 10° S night (unlit)
28 Jan - 21:12:13 10° SSW 21:15:34 29° SSE 21:18:52 10° E night (unlit)
28 Jan - 22:51:58 10° WSW 22:55:45 82° SSE 22:59:31 10° E night (unlit)
29 Jan - 00:32:30 10° W 00:36:15 88° N 00:40:05 10° E night (unlit)
29 Jan - 02:13:00 10° W 02:16:35 41° SSW 02:20:16 10° SE night (unlit)
29 Jan - 03:55:23 10° WSW 03:56:20 11° SW 03:57:18 10° SSW night (unlit)
29 Jan - 19:40:01 10° SE 19:40:38 10° SE 19:41:16 10° SE night (unlit)
29 Jan - 21:16:46 10° SW 21:20:22 41° SSE 21:23:56 10° E night (unlit)
29 Jan - 22:56:53 10° W 23:00:41 88° N 23:04:28 10° E night (unlit)
30 Jan - 00:37:26 10° W 00:41:12 82° SSW 00:45:01 10° ESE night (unlit)
30 Jan - 02:18:03 10° W 02:21:23 30° SSW 02:24:48 10° SSE night (unlit)
30 Jan - 19:42:52 10° S 19:45:18 16° SE 19:47:42 10° E visible
30 Jan - 21:21:28 10° SW 21:25:13 56° SSE 21:28:55 10° E night (unlit)
30 Jan - 23:01:51 10° W 23:05:38 83° N 23:09:25 10° E night (unlit)
31 Jan - 00:42:23 10° W 00:46:06 67° SSW 00:49:54 10° ESE night (unlit)
31 Jan - 02:23:15 10° W 02:26:08 21° SW 02:29:05 10° SSE night (unlit)
31 Jan - 19:46:52 10° SSW 19:50:01 23° SE 19:53:05 10° E visible
31 Jan - 21:26:17 10° WSW 21:30:06 72° SSE 21:33:51 10° E night (unlit)
31 Jan - 23:06:49 10° W 23:10:36 84° N 23:14:22 10° E night (unlit)
01 Feb - 00:47:19 10° W 00:50:59 51° SSW 00:54:41 10° SE night (unlit)
01 Feb - 02:28:47 10° WSW 02:30:50 14° SW 02:32:55 10° S night (unlit)
01 Feb - 19:51:15 10° SW 19:54:47 33° SSE 19:58:13 10° E visible
01 Feb - 21:31:11 10° WSW 21:35:02 86° SSE 21:38:48 10° E night (unlit)
01 Feb - 23:11:46 10° W 23:15:33 89° SE 23:19:19 10° E night (unlit)
02 Feb - 00:52:19 10° W 00:55:49 37° SSW 00:59:21 10° SE night (unlit)
02 Feb - 18:18:04 10° SSE 18:19:47 12° SE 18:21:28 10° ESE visible
02 Feb - 19:55:51 10° SW 19:59:36 46° SSE 20:03:15 10° E visible
02 Feb - 21:36:08 10° W 21:39:58 86° N 21:43:44 10° E night (unlit)
02 Feb - 23:16:42 10° W 23:20:28 77° SSW 23:24:14 10° ESE night (unlit)
